Change the Weather History Date:

Thursday, October 11, 2012

  Actual Average Record
Temperature  
Mean Temperature 46 °F 52 °F  
Max Temperature 61 °F 62 °F 84 °F (1962)
Min Temperature 31 °F 41 °F 23 °F (1964)
Degree Days  
Heating Degree Days 19 13  
Month to date heating degree days 165 131  
Since 1 July heating degree days 350 319  
Cooling Degree Days 0 0  
Month to date cooling degree days 0 3  
Year to date cooling degree days 868 589  
Moisture  
Dew Point 31 °F    
Average Humidity 61    
Maximum Humidity 89    
Minimum Humidity 32    
Precipitation  
Precipitation T in 0.09 in 1.18 in (1949)
Month to date precipitation 0.48 1.05  
Year to date precipitation 20.18 25.45  
Sea Level Pressure  
Sea Level Pressure 30.14 in    
Wind  
Wind Speed 8 mph (SW)    
Max Wind Speed 26 mph    
Max Gust Speed 36 mph    
Visibility 10 miles    
Events      
T = Trace of Precipitation, MM = Missing Value Source: NWS Daily Summary

Daily Weather History Graph

Daily Weather History Graph

Search for Another Location

Airport or City:

Trip Planner

Search our weather history database for the weather conditions in past years. The results will help you decide how hot, cold, wet, or windy it might be!

Date:

Astronomy

Oct. 11, 2012 Rise Set
Actual Time 7:46 AM EDT 7:01 PM EDT
Civil Twilight 7:18 AM EDT 7:29 PM EDT
Nautical Twilight 6:45 AM EDT 8:02 PM EDT
Astronomical Twilight 6:13 AM EDT 8:34 PM EDT
Moon 3:19 AM EDT (10/11) 4:41 PM EDT (10/11)
Length of Visible Light 12h 11m
Length of Day
11h 15m
Waning Crescent, 18% of the Moon is Illuminated
Oct 11
Waning Crescent
Oct 15
New
Oct 21
First Quarter
Oct 29
Full
Nov 6
Last Quarter

Hourly Weather History & Observations

Time (EDT) Temp. Windchill Dew Point Humidity Pressure Visibility Wind Dir Wind Speed Gust Speed Precip Events Conditions
12:56 AM 32.0 °F - 28.0 °F 85% 30.19 in 10.0 mi Calm Calm - N/A   Partly Cloudy
2:56 AM 32.0 °F 27.5 °F 28.0 °F 85% 30.19 in 10.0 mi SW 4.6 mph - N/A   Partly Cloudy
3:56 AM 32.0 °F 28.7 °F 28.0 °F 85% 30.19 in 10.0 mi SW 3.5 mph - N/A   Clear
4:56 AM 33.1 °F 30.0 °F 28.0 °F 82% 30.19 in 10.0 mi SW 3.5 mph - N/A   Clear
5:56 AM 33.1 °F 27.7 °F 28.0 °F 82% 30.19 in 10.0 mi SW 5.8 mph - N/A   Partly Cloudy
6:56 AM 33.1 °F 27.7 °F 28.0 °F 82% 30.19 in 10.0 mi SSW 5.8 mph - N/A   Clear
8:56 AM 39.9 °F 33.9 °F 30.0 °F 68% 30.18 in 10.0 mi SSW 9.2 mph - N/A   Clear
9:56 AM 46.9 °F - 30.0 °F 52% 30.18 in 10.0 mi SW 10.4 mph 21.9 mph N/A   Clear
10:56 AM 50.0 °F - 30.9 °F 48% 30.17 in 10.0 mi SW 17.3 mph 29.9 mph N/A   Clear
11:56 AM 54.0 °F - 30.9 °F 41% 30.14 in 10.0 mi SW 18.4 mph 33.4 mph N/A   Clear
12:56 PM 55.9 °F - 30.9 °F 39% 30.11 in 10.0 mi SW 13.8 mph 29.9 mph N/A   Clear
1:56 PM 57.9 °F - 30.9 °F 36% 30.08 in 10.0 mi SW 19.6 mph 34.5 mph N/A   Clear
2:56 PM 60.1 °F - 30.9 °F 33% 30.06 in 10.0 mi SW 24.2 mph 33.4 mph N/A   Clear
3:56 PM 61.0 °F - 30.9 °F 32% 30.06 in 10.0 mi WSW 23.0 mph 29.9 mph N/A   Clear
4:56 PM 60.1 °F - 32.0 °F 35% 30.05 in 10.0 mi SW 18.4 mph 24.2 mph N/A   Clear
5:56 PM 59.0 °F - 32.0 °F 36% 30.06 in 10.0 mi WSW 16.1 mph 24.2 mph N/A   Clear
7:56 PM 54.0 °F - 33.1 °F 45% 30.08 in 10.0 mi SW 5.8 mph - N/A   Mostly Cloudy
9:56 PM 50.0 °F - 37.9 °F 63% 30.13 in 10.0 mi NNW 6.9 mph - N/A   Mostly Cloudy
10:56 PM 48.9 °F - 39.0 °F 69% 30.16 in 10.0 mi North 8.1 mph - N/A   Overcast
11:56 PM 45.0 °F 38.9 °F 37.0 °F 74% 30.21 in 10.0 mi North 12.7 mph 17.3 mph N/A   Overcast